Simultaneous Nadir Overpasses (SNOs) Predictions

Prediction of SNOs between GOES-17 and METOP-B Satellite Orbit:

Table of predicted SNOs for the next 14.0 days since TLE Epoch: 7/15/2023
Index Date Time (GOES-17) GOES-17 Lat,Lon METOP-B Lat,Lon Distance(km) Time Diff (sec)
1 07/15/2023 16:43:08 -0.01,-104.74 0.90,-108.67 448.83 80
2 07/16/2023 16:25:08 -0.01,-104.74 -0.22,-103.67 120.51 80
3 07/18/2023 04:44:07 0.01,-104.70 -0.77,-108.27 406.39 80
4 07/19/2023 04:20:47 0.01,-104.70 0.34,-103.28 162.85 80
5 07/20/2023 16:39:37 -0.01,-104.73 0.66,-107.84 353.39 80
6 07/21/2023 16:21:35 -0.00,-104.73 -0.40,-102.83 216.36 80
7 07/23/2023 04:40:34 0.00,-104.71 -0.63,-107.42 309.66 80
8 07/24/2023 04:17:13 0.00,-104.71 0.49,-102.43 259.86 80
9 07/25/2023 16:36:04 -0.01,-104.74 0.50,-106.99 256.52 80
10 07/26/2023 16:18:03 -0.01,-104.74 -0.62,-101.99 313.09 80
11 07/28/2023 04:37:01 0.01,-104.71 -0.39,-106.59 213.11 80
